SCP
1 1 1 1 1 0 0 0 0 0 0 0 0 0 0 0 0 0 0 0 0 0 0 0 0 0 0 0 0 0 0 0 0 0 0 0 0 0 0 0 0 0 0
1 1 1 0 0 0 0 0 0 0 0 0 0 0 0 0 0 0 0 0 0 0 0 0 0 0 0 0 0 0 0 0 0 0 0 0 0 0 0 0 0 0 0
0 0 0 0 0 0 0 0 0 0 0 0 0 0 0 0 0 0 0 0 0 0 0 0 0 0 0 0 0 0 0 0 0 0 0 0 0 0 0 0 0 0 0
0 0 0 0 0 0 0 0 0 0 0 0 0 0 0 0 0 0 0 0 0 0 0 0 0 0 0 0 0 0 0 0 0 0 0 0 0 0 0 0 0 0 0
0 0 0 0 0 0 0 0 0 0 0 0 0 0 0 0 0 0 0 0 0 0 0 0 0 0 0 0 0 0 0 0 0 0 0 0 0 0 0 0 0 0 0
0 0 0 0 0 0 0 0 0 0 0 0 0 0 0 0 0 0 0 0 0 0 0 0 0 0 0 0 0 0 0 0 0 0 0 0 0 0 0 0 0 0 0
0 0 0 0 0 0 0 0 0 0 0 0 0 0 0 0 0 0 0 0 0 0 0 0 0 0 0 0 0 0 0 0 0 0 0 0 0 0 0 0 0 0 0
0 0 0 0 0 0 0 0 0 0 0 0 0 0 0 0 0 0 0 0 0 0 0 0 0 0 0 0 0 0 0 0 0 0 0 0 0 0 0 0 0 0 0
0 0 0 0 0 0 0 0 0 0 0 0 0 0 0 0 0 0 0 0 0 0 0 0 0 0 0 0 0 0 0 0 0 0 0 0 0 0 0 0 0 0 0
0 0 0 0 0 0 0 0 0 0 0 0 0 0 0 0 0 0 0 0 0 0 0 0 0 0 0 0 0 0 0 0 0 0 0 0 0 0 0 0 0 0 0
0 0 0 0 0 0 0 0 0 0 0 0 0 0 0 0 0 0 0 0 0 0 0 0 0 0 0 0 0 0 0 0 0 0 0 0 0 0 0 0 0 0 0
0 0 0 0 0 0 0 0 0 0 0 0 0 0 0 0 0 0 0 0 0 0 0 0 0 0 0 0 0 0 0 0 0 0 0 0 0 0 0 0 0 0 0
0 0 0 0 0 0 0 0 0 0 0 0 0 0 0 0 0 0 0 0 0 0 0 0 0 0 0 0 0 0 0 0 0 0 0 0 0 0 0 0 0 0 0
0 0 0 0 0 0 0 0 0 0 0 0 0 0 0 0 0 0 0 0 0 0 0 0 0 0 0 0 0 0 0 0 0 0 0 0 0 0 0 0 0 0 0
0 0 0 0 0 0 0 0 0 0 0 0 0 0 0 0 0 0 0 0 0 0 0 0 0 0 0 0 0 0 0 0 0 0 0 0 0 0 0 0 0 0 0
0 0 0 0 0 0 0 0 0 0 0 0 0 0 0 0 0 0 0 0 0 0 0 0 0 0 0 0 0 0 0 0 0 0 0 0 0 0 0 0 0 0 0
0 0 0 0 0 0 0 0 0 0 0 0 0 0 0 0 0 0 0 0 0 0 0 0 0 0 0 0 0 0 0 0 0 0 0 0 0 0 0 0 0 0 0
0 0 0 0 0 0 0 0 0 0 0 0 0 0 0 0 0 0 0 0 0 0 0 0 0 0 0 0 0 0 0 0 0 0 0 0 0 0 0 0 0 0 0
0 0 0 0 0 0 0 0 0 0 0 0 0 0 0 0 0 0 0 0 0 0 0 0 0 0 0 0 0 0 0 0 0 0 0 0 0 0 0 0 0 0 0
0 0 0 0 0 0 0 0 0 0 0 0 0 0 0 0 0 0 0 0 0 0 0 0 0 0 0 0 0 0 0 0 0 0 0 0 0 0 0 0 0 0 0
0 0 0 0 0 0 0 0 0 0 0 0 0 0 0 0 0 0 0 0 0 0 0 0 0 0 0 0 0 0 0 0 0 0 0 0 0 0 0 0 0 0 0
0 0 0 0 0 0 0 0 0 0 0 0 0 0 0 0 0 0 0 0 0 0 0 0 0 0 0 0 0 0 0 0 0 0 0 0 0 0 0 0 0 0 0
0 0 0 0 0 0 0 0 0 0 0 0 0 0 0 0 0 0 0 0 0 0 0 0 0 0 0 0 0 0 0 0 0 0 0 0 0 0 0 0 0 0 0
0 0 0 0 0 0 0 0 0 0 0 0 0 0 0 0 0 0 0 0 0 0 0 0 0 0 0 0 0 0 0 0 0 0 0 0 0 0 0 0 0 0 0
0 0 0 0 0 0 0 0 0 0 0 0 0 0 0 0 0 0 0 0 0 0 0 0 0 0 0 0 0 0 0 0 0 0 0 0 0 0 0 0 0 0 0
0 0 0 0 0 0 0 0 0 0 0 0 0 0 0 0 0 0 0 0 0 0 0 0 0 0 0 0 0 0 0 0 0 0 0 0 0 0 0 0 0 0 0
Wind_Speed
8 8 7 7 7 7 8 8 7 8 7 6 6 7 6 6 5 4 3 8 8 9 10 9 8 8 7 6 5 5 4 3 3 2 1 1 2 2 3 4 5 6 6
9 9 8 8 8 8 9 9 9 8 6 6 6 7 7 6 6 5 4 5 8 9 9 9 9 8 8 7 6 5 5 4 3 3 3 3 3 4 4 5 6 7 8
11 10 10 9 9 9 9 8 8 7 6 6 6 7 6 6 6 6 5 3 4 6 9 9 9 8 7 7 6 6 5 5 5 5 5 5 5 6 6 7 7 8 9
12 11 10 10 10 9 9 9 9 7 7 6 6 5 5 5 6 6 5 4 3 3 5 8 9 9 8 8 7 7 6 6 6 6 6 6 7 7 7 8 9 9 10
13 12 10 10 11 9 8 9 8 8 8 7 6 5 4 4 5 5 5 5 5 4 3 5 7 8 9 9 8 8 8 8 7 7 8 8 8 8 9 9 10 10 11
13 12 10 12 12 9 9 9 10 8 7 7 6 4 3 3 3 4 5 4 4 5 5 4 4 5 8 9 9 9 9 9 9 9 9 9 9 9 10 10 10 11 12
13 13 11 12 12 11 11 12 9 10 7 7 6 3 1 1 3 4 4 4 5 5 5 5 4 3 3 8 10 10 10 10 10 10 9 9 10 10 10 11 11 12 12
14 13 13 12 13 11 12 12 10 8 6 7 7 6 3 1 2 3 3 4 5 4 5 6 5 5 4 3 5 10 11 11 11 10 10 10 10 11 11 11 11 12 13
14 14 15 13 13 13 13 14 13 11 10 7 6 7 6 6 3 2 3 4 5 4 4 4 5 6 5 4 4 7 10 12 11 11 10 10 11 11 11 11 11 12 13
15 15 15 15 14 12 13 14 13 10 12 10 6 3 3 5 5 2 2 3 4 5 5 4 5 5 5 4 6 8 10 10 11 11 11 11 11 11 11 11 12 12 13
14 15 15 14 15 12 14 14 13 13 11 10 8 5 3 2 3 4 3 3 2 3 4 5 4 4 5 5 4 6 9 9 10 10 10 10 11 11 11 11 11 12 13
10 13 14 14 14 13 14 14 14 15 12 10 8 6 6 5 5 4 4 4 3 3 3 3 4 4 4 4 5 7 8 7 7 8 8 9 9 10 11 11 11 12 12
8 13 13 13 13 13 13 13 14 14 14 13 11 7 5 4 4 4 4 3 2 1 2 2 4 4 4 3 4 6 6 6 6 6 6 7 7 8 9 10 11 11 12
9 13 13 14 14 14 14 13 12 13 12 12 12 9 6 5 5 4 5 5 3 1 2 4 2 3 3 3 4 6 3 5 5 5 6 6 6 7 8 9 10 10 11
9 13 13 14 14 14 14 14 11 13 12 12 11 10 7 5 5 4 4 5 6 4 4 4 3 3 3 3 4 3 3 4 5 5 5 5 5 6 7 8 8 10 10
9 13 13 14 15 14 14 14 11 12 13 11 9 10 8 5 5 5 5 4 4 4 4 4 3 2 3 3 4 3 3 3 3 4 4 4 5 6 6 7 8 9 10
8 12 13 14 14 15 14 14 12 14 14 12 10 11 10 8 6 6 5 4 4 4 4 2 1 1 2 2 2 1 1 1 1 3 4 4 5 5 6 6 7 8 9
7 9 11 13 14 14 15 15 15 14 15 15 13 12 11 8 8 7 6 6 5 4 4 4 2 2 2 2 2 2 1 1 1 2 3 4 4 4 5 6 7 7 8
6 8 10 12 13 14 14 14 15 14 14 14 14 13 12 11 10 7 7 6 5 4 3 3 2 2 1 1 1 1 0 0 1 2 3 3 3 4 5 5 6 7 8
5 7 10 10 11 13 13 14 14 13 13 12 12 12 12 12 11 10 8 7 6 5 4 3 2 2 2 1 2 1 1 1 1 2 2 2 3 4 5 5 6 7 8
4 5 7 8 8 9 11 13 14 13 13 12 10 10 10 12 13 11 8 7 7 5 4 4 3 2 2 2 2 2 2 1 1 1 2 2 1 2 2 4 6 7 8
3 4 6 7 9 8 10 15 14 12 12 12 11 10 9 11 12 13 11 11 10 8 7 5 3 4 4 3 2 2 2 1 2 1 1 2 1 2 2 2 6 7 8
2 3 4 6 7 8 12 14 15 12 12 12 12 10 8 8 11 9 10 10 8 8 9 7 6 5 5 4 4 3 2 2 2 1 0 2 1 2 2 3 7 7 8
2 3 4 5 6 7 12 14 15 11 9 11 11 12 11 11 10 11 10 8 5 4 5 5 5 5 4 4 4 4 3 2 1 0 0 1 2 2 3 3 6 6 8
2 3 3 5 6 7 11 13 13 8 7 9 10 11 12 11 15 16 12 10 7 4 6 8 7 7 7 7 6 4 3 2 1 1 0 1 1 2 3 2 3 7 9
3 2 2 3 5 6 9 12 13 7 7 7 7 9 12 13 17 18 12 11 10 7 7 6 6 5 4 5 5 4 4 3 1 2 1 1 1 1 3 2 2 3 4
Wind_Direction
177 176 176 174 173 168 166 162 163 163 165 166 164 158 157 159 160 159 167 170 171 173 172 175 178 179 177 177 179 179 180 189 191 194 220 272 297 308 316 320 318 319 320
180 177 176 178 176 174 171 168 168 168 169 167 166 163 162 162 162 162 166 174 179 182 183 186 189 190 190 191 195 198 208 219 224 233 249 266 280 290 297 301 305 308 311
185 181 178 180 179 176 172 167 167 162 164 166 167 165 163 165 165 168 170 171 184 195 196 197 196 199 201 204 208 213 225 235 244 245 255 263 270 278 286 291 296 301 304
192 182 182 181 178 173 175 171 168 165 168 166 166 168 165 167 172 174 175 177 182 193 206 205 204 211 215 217 221 226 235 242 249 251 258 265 271 275 281 287 293 296 298
196 185 185 181 176 174 176 176 171 167 165 165 165 163 165 170 178 179 185 189 191 191 196 208 210 216 225 229 232 236 242 249 250 255 262 267 272 277 280 285 290 294 298
199 187 186 183 176 174 176 176 170 167 163 161 157 152 165 178 180 186 192 193 196 198 196 202 204 220 227 233 239 244 248 253 255 257 263 268 273 278 281 285 290 294 298
200 190 187 184 179 179 180 172 166 164 161 152 133 123 65 193 199 200 193 191 202 202 195 200 199 205 226 235 241 247 252 257 261 262 265 270 274 279 283 286 290 295 298
200 196 184 188 182 177 177 176 167 160 164 162 148 140 144 257 251 215 201 198 204 199 202 206 202 205 212 221 237 245 253 258 262 266 268 272 277 282 286 288 293 296 299
201 196 186 187 184 180 181 181 175 164 166 170 164 153 157 193 202 236 214 205 201 202 210 209 210 210 211 215 228 243 249 256 263 269 273 276 279 284 287 291 295 300 305
199 195 189 188 187 183 181 183 177 169 165 171 173 171 156 149 154 179 244 221 208 209 211 213 214 217 215 215 224 232 243 250 259 269 276 280 283 288 291 295 299 303 306
196 194 191 190 187 184 183 184 177 172 173 173 171 161 149 138 134 147 189 207 224 225 213 213 214 218 218 215 218 228 235 243 256 268 278 284 288 292 295 300 302 305 308
194 194 193 191 187 184 184 185 182 177 176 174 172 166 163 162 168 158 171 185 203 233 223 218 216 219 217 209 215 220 229 239 252 266 277 285 290 294 298 302 305 307 309
196 194 195 191 186 186 184 183 182 181 178 178 179 180 178 175 153 149 147 159 179 228 232 235 223 215 209 194 204 213 225 237 250 260 272 282 288 293 298 303 305 307 310
200 195 192 191 189 186 182 182 182 182 180 182 183 178 179 181 167 159 156 153 152 210 237 242 231 211 200 188 200 202 216 231 241 252 266 275 283 290 296 301 304 307 310
199 194 190 191 189 185 181 180 185 182 180 184 183 182 184 184 177 171 163 161 159 182 224 229 221 212 193 182 191 185 202 226 238 255 268 274 278 286 293 300 305 308 311
198 190 189 191 187 184 180 181 183 181 180 184 181 183 188 186 178 173 174 176 170 168 203 216 211 200 178 176 181 176 197 213 239 257 267 274 281 288 295 302 304 307 311
194 192 191 189 187 184 182 182 183 180 182 183 183 186 190 183 180 179 176 176 180 168 196 222 192 165 157 166 159 168 175 195 245 270 277 280 285 291 299 303 308 311 312
199 196 192 189 189 186 184 184 183 182 183 185 186 186 189 184 186 181 177 185 188 181 179 202 192 168 163 169 164 169 167 203 247 289 288 288 295 300 304 308 311 314 315
209 203 191 191 191 188 185 185 183 183 187 188 187 187 187 183 189 183 179 185 186 181 177 176 179 155 140 133 132 138 173 288 295 307 303 295 299 309 314 315 317 319 318
214 209 197 190 191 187 185 183 181 183 186 187 187 187 186 188 189 182 183 186 177 172 165 162 165 155 147 131 126 171 241 260 296 323 315 313 315 326 325 323 323 321 320
221 214 200 191 189 184 185 183 181 181 182 183 184 185 187 187 185 182 181 179 173 172 167 170 171 155 164 163 192 179 202 258 284 317 314 303 308 313 320 323 323 319 323
226 219 203 195 191 190 184 181 179 180 181 181 182 181 181 181 178 175 171 169 171 174 179 175 177 182 194 191 170 160 161 162 277 311 313 293 313 288 292 293 315 325 329
243 226 212 199 195 186 176 178 177 177 182 181 179 175 172 174 168 162 157 155 162 167 172 172 176 190 183 184 165 169 181 187 216 245 347 280 306 286 287 310 319 326 333
265 239 219 206 196 184 176 176 176 177 177 177 176 174 171 169 168 160 152 148 146 154 166 161 166 174 168 161 164 169 166 144 114 349 90 268 294 286 305 311 321 335 340
287 273 221 204 198 185 176 173 168 174 173 171 169 169 168 167 165 157 151 148 141 132 119 129 129 128 130 133 133 121 122 120 211 258 225 229 284 301 301 294 317 336 339
276 285 246 206 196 185 174 168 165 165 164 160 159 164 169 166 164 161 161 158 158 157 139 124 111 100 105 115 121 139 157 152 161 234 223 181 252 325 311 298 302 317 329